Date String (YYYY-MM-DD hh:mm:ss) UTC,Instrument flags,Ambient pressure (hPa),Sample flow (lpm),Bypass flow (lpm),Sample temperature (°C),Ambient temperature (°C),ASC tube jacket temperature (°C),LED temperature (°C),Box temperature (°C),Sample RH (%),Span deviation,Mass concentration (μg/m³),Mass concentration (μg/m³),Mass concentration (μg/m³)
DateTimeUTC,F1_M11,P_M11,Q1_M11,Q2_M11,T1_M11,T2_M11,T3_M11,T4_M11,T5_M11,U1_M11,ZSPAN_M11,X0_M11,X2_M11,X1_M11
2022-01-28 17:00:00,,0835.5,5.00,0.00,23.5,22.8,00.0,32.4,25.3,05.6,0000.0,0000.94,0000.70,0000.58
2022-01-28 17:01:00,,0835.5,5.00,0.00,23.5,22.8,00.0,32.4,25.3,05.6,0000.0,0000.92,0000.68,0000.57
2022-01-28 17:02:00,,0835.6,5.00,0.00,23.5,22.8,00.0,32.4,25.3,05.3,0000.0,0000.88,0000.65,0000.55
2022-01-28 17:03:00,,0835.5,4.99,0.00,23.6,22.8,00.0,32.4,25.3,05.3,0000.0,0000.88,0000.65,0000.55
2022-01-28 17:04:00,,0835.5,5.00,0.00,23.6,22.8,00.0,32.4,25.3,05.4,0000.0,0000.88,0000.65,0000.55
2022-01-28 17:05:00,,0835.5,5.02,0.00,23.6,22.8,00.0,32.4,25.4,05.4,0000.0,0001.32,0000.70,0000.56
2022-01-28 17:06:00,,0835.5,4.98,0.00,23.6,22.9,00.0,32.4,25.4,05.4,0000.0,0001.53,0000.76,0000.56
2022-01-28 17:07:00,,0835.5,5.01,0.00,23.6,22.9,00.0,32.4,25.4,05.4,0000.0,0001.55,0000.77,0000.56
2022-01-28 17:08:00,,0835.5,5.00,0.00,23.6,22.9,00.0,32.4,25.4,05.5,0000.0,0001.57,0000.77,0000.56
2022-01-28 17:09:00,,0835.5,5.00,0.00,23.6,22.9,00.0,32.5,25.4,04.9,0000.0,0001.55,0000.76,0000.55
2022-01-28 17:10:00,,0835.5,5.00,0.00,23.6,22.9,00.0,32.5,25.4,04.8,0000.0,0001.45,0000.72,0000.55
2022-01-28 17:11:00,,0835.5,4.99,0.00,23.6,22.9,00.0,32.5,25.4,04.8,0000.0,0001.39,0000.70,0000.55
2022-01-28 17:12:00,,0835.5,5.00,0.00,23.6,22.9,00.0,32.5,25.4,04.8,0000.0,0001.43,0000.72,0000.55
2022-01-28 17:13:00,,0835.5,5.00,0.00,23.6,22.9,00.0,32.5,25.4,04.8,0000.0,0001.43,0000.73,0000.55
2022-01-28 17:14:00,,0835.5,5.00,0.00,23.6,22.9,00.0,32.5,25.5,05.0,0000.0,0001.40,0000.71,0000.54
2022-01-28 17:15:00,,0835.5,5.00,0.00,23.6,22.9,00.0,32.5,25.5,04.9,0000.0,0001.42,0000.71,0000.54
2022-01-28 17:16:00,,0835.5,5.00,0.00,23.7,22.9,00.0,32.5,25.5,05.0,0000.0,0001.03,0000.66,0000.54
2022-01-28 17:17:00,,0835.5,5.01,0.00,23.7,22.9,00.0,32.5,25.5,05.2,0000.0,0000.82,0000.63,0000.54
2022-01-28 17:18:00,,0835.5,5.01,0.00,23.7,23.0,00.0,32.5,25.5,04.8,0000.0,0000.78,0000.61,0000.54
2022-01-28 17:19:00,,0835.5,4.99,0.00,23.7,23.0,00.0,32.5,25.5,04.9,0000.0,0000.75,0000.60,0000.54
2022-01-28 17:20:00,,0835.5,5.00,0.00,23.7,23.0,00.0,32.6,25.5,05.2,0000.0,0000.75,0000.60,0000.54
2022-01-28 17:21:00,,0835.5,5.00,0.00,23.7,23.0,00.0,32.6,25.5,05.4,0000.0,0000.78,0000.61,0000.55
2022-01-28 17:22:00,,0835.5,4.99,0.00,23.7,23.0,00.0,32.6,25.5,05.7,0000.0,0000.83,0000.63,0000.55
2022-01-28 17:23:00,,0835.5,5.00,0.00,23.8,23.0,00.0,32.6,25.5,05.3,0000.0,0000.91,0000.64,0000.55
2022-01-28 17:24:00,,0835.5,4.99,0.00,23.8,23.0,00.0,32.6,25.5,05.4,0000.0,0000.95,0000.66,0000.55
2022-01-28 17:25:00,,0835.5,4.99,0.00,23.8,23.1,00.0,32.6,25.5,05.4,0000.0,0000.99,0000.68,0000.56
2022-01-28 17:26:00,,0835.6,5.01,0.00,23.8,23.1,00.0,32.6,25.6,05.9,0000.0,0001.00,0000.69,0000.57
2022-01-28 17:27:00,,0835.5,5.00,0.00,23.8,23.1,00.0,32.6,25.6,06.3,0000.0,0001.01,0000.70,0000.57
2022-01-28 17:28:00,,0835.5,5.00,0.00,23.9,23.1,00.0,32.7,25.6,06.5,0000.0,0001.01,0000.70,0000.57
2022-01-28 17:29:00,,0835.5,4.99,0.00,23.9,23.1,00.0,32.7,25.7,06.5,0000.0,0001.08,0000.74,0000.58
2022-01-28 17:30:00,,0835.5,5.00,0.00,23.9,23.2,00.0,32.7,25.7,06.4,0000.0,0001.15,0000.78,0000.60
2022-01-28 17:31:00,,0835.5,5.00,0.00,23.9,23.2,00.0,32.7,25.7,06.5,0000.0,0001.19,0000.81,0000.61
2022-01-28 17:32:00,,0835.5,5.00,0.00,23.9,23.2,00.0,32.7,25.7,06.8,0000.0,0001.26,0000.84,0000.63
2022-01-28 17:33:00,,0835.5,4.99,0.00,23.9,23.2,00.0,32.7,25.7,06.7,0000.0,0001.27,0000.85,0000.64
2022-01-28 17:34:00,,0835.5,5.00,0.00,24.0,23.2,00.0,32.7,25.8,06.2,0000.0,0001.24,0000.85,0000.65
2022-01-28 17:35:00,,0835.5,5.00,0.00,24.0,23.3,00.0,32.8,25.9,06.4,0000.0,0001.22,0000.85,0000.67
2022-01-28 17:36:00,,0835.5,5.00,0.00,24.0,23.3,00.0,32.8,25.9,06.7,0000.0,0001.27,0000.87,0000.67
2022-01-28 17:37:00,,0835.5,4.99,0.00,24.0,23.3,00.0,32.8,25.9,06.6,0000.0,0001.32,0000.90,0000.68
2022-01-28 17:38:00,,0835.5,5.00,0.00,24.0,23.4,00.0,32.8,25.9,06.4,0000.0,0001.40,0000.94,0000.70
2022-01-28 17:39:00,,0835.5,5.00,0.00,24.0,23.4,00.0,32.8,25.9,05.4,0000.0,0001.38,0000.92,0000.70
2022-01-28 17:40:00,,0835.5,4.99,0.00,24.1,23.4,00.0,32.9,26.0,05.2,0000.0,0001.31,0000.89,0000.68
2022-01-28 17:41:00,,0835.5,5.00,0.00,24.1,23.4,00.0,32.9,26.0,05.3,0000.0,0001.25,0000.85,0000.68
2022-01-28 17:42:00,,0835.5,5.00,0.00,24.1,23.4,00.0,32.9,26.0,04.9,0000.0,0001.19,0000.82,0000.66
2022-01-28 17:43:00,,0835.5,4.99,0.00,24.1,23.4,00.0,32.9,26.0,04.9,0000.0,0001.11,0000.79,0000.65
2022-01-28 17:44:00,,0835.5,5.00,0.00,24.2,23.5,00.0,32.9,26.0,04.9,0000.0,0001.14,0000.81,0000.65
2022-01-28 17:45:00,,0835.5,5.01,0.00,24.2,23.5,00.0,32.9,26.1,04.9,0000.0,0001.08,0000.78,0000.64
2022-01-28 17:46:00,,0835.5,5.00,0.00,24.2,23.5,00.0,33.0,26.1,05.0,0000.0,0001.04,0000.76,0000.62
2022-01-28 17:47:00,,0835.5,5.00,0.00,24.2,23.5,00.0,33.0,26.1,04.9,0000.0,0001.07,0000.77,0000.63
2022-01-28 17:48:00,,0835.5,4.99,0.00,24.2,23.5,00.0,33.0,26.1,04.8,0000.0,0001.06,0000.77,0000.63
2022-01-28 17:49:00,,0835.5,4.98,0.00,24.2,23.5,00.0,33.0,26.2,04.9,0000.0,0001.01,0000.74,0000.62
2022-01-28 17:50:00,,0835.5,5.01,0.00,24.2,23.5,00.0,33.1,26.2,04.9,0000.0,0001.01,0000.74,0000.63
2022-01-28 17:51:00,,0835.5,5.02,0.00,24.3,23.5,00.0,33.1,26.1,05.3,0000.0,0001.02,0000.75,0000.64
2022-01-28 17:52:00,,0835.5,4.99,0.00,24.3,23.6,00.0,33.1,26.2,05.4,0000.0,0001.04,0000.77,0000.66
2022-01-28 17:53:00,,0835.5,5.00,0.00,24.3,23.6,00.0,33.1,26.2,05.4,0000.0,0001.07,0000.78,0000.67
2022-01-28 17:54:00,,0835.5,5.00,0.00,24.3,23.6,00.0,33.1,26.2,05.3,0000.0,0001.35,0000.80,0000.67
2022-01-28 17:55:00,,0835.5,5.01,0.00,24.3,23.6,00.0,33.1,26.2,05.2,0000.0,0002.11,0000.80,0000.67
2022-01-28 17:56:00,,0835.5,5.00,0.00,24.4,23.6,00.0,33.1,26.2,05.3,0000.0,0002.20,0000.84,0000.68
2022-01-28 17:57:00,,0835.5,5.01,0.00,24.4,23.6,00.0,33.2,26.2,05.5,0000.0,0002.24,0000.86,0000.69
2022-01-28 17:58:00,,0835.5,5.00,0.00,24.4,23.7,00.0,33.2,26.3,05.6,0000.0,0002.23,0000.85,0000.69
2022-01-28 17:59:00,,0835.5,4.99,0.00,24.4,23.7,00.0,33.2,26.3,05.5,0000.0,0002.29,0000.86,0000.69
